Hourly Data Report for December 26, 2018

EUREKA CLIMATE
NUNAVUT
Current Station Operator: ECCC - MSC

79°59'21.000" N
85°56'02.000" W
10.00 m
2401199
71613
NEK

Download Data

Hourly Data (December 2018)
Hourly Data Report for December 26, 2018
TIME
LST
Temp Definition
°C
Dew Point Definition
°C
Rel Hum Definition
%
Precip. Amount Definition
mm

Wind Dir Definition
10's deg

Wind Spd Definition
km/h
Visibility Definition
km
Stn Press Definition
kPa
Hmdx Definition


Wind Chill Definition


Weather Definition


00:00 -34.7 -38.1 71 0.0 15 18   102.01   -48 LegendNANA
01:00 -34.8 -38.2 71 0.0 10 18   102.05   -48 LegendNANA
02:00 -34.9 -38.3 71 0.0 9 16   102.09   -48 LegendNANA
03:00 -35.5 -39.0 70 0.0 9 17   102.11   -49 LegendNANA
04:00 -35.4 -38.9 70 0.0 11 15   102.12   -48 LegendNANA
05:00 -35.0 -38.4 71 0.0 11 14   102.13   -47 LegendNANA
06:00 -34.6 -38.0 71 0.0 10 14   102.16   -47 LegendNANA
07:00 -35.2 -38.7 70 0.0 10 13   102.13   -47 LegendNANA
08:00 -35.6 -39.1 70 0.0 7 8   102.13   -45 LegendNANA
09:00 -37.1 -40.7 69 0.0 3 8   102.14   -46 LegendNANA
10:00 -37.7 -41.5 68 0.0 3 9   102.15   -48 LegendNANA
11:00 -37.2 -40.9 68 0.0 3 7   102.17   -46 LegendNANA
12:00 -36.0 -39.6 70 0.0 10 7   102.17   -44 LegendNANA
13:00 -36.7 -40.3 69 0.0 10 10   102.21   -47 LegendNANA
14:00 -37.3 -41.0 68 0.0 8 7   102.24   -46 LegendNANA
15:00 -37.9 -41.6 68 0.0 9 5   102.27   -45 LegendNANA
16:00 -37.3 -41.0 68 0.0 9 9   102.29   -47 LegendNANA
17:00 -37.4 -41.1 68 0.0 7 6   102.30   -45 LegendNANA
18:00 -37.9 -41.6 68 0.0 11 6   102.29   -46 LegendNANA
19:00 -38.5 -42.4 67 0.0 9 10   102.30   -49 LegendNANA
20:00 -39.0 -42.9 66 0.0 6 4   102.32   -44 LegendNANA
21:00 -39.2 -43.1 66 0.0 10 1   102.35   -41 LegendNANA
22:00 -39.4 -43.3 66 0.0 6 2   102.39   -42 LegendNANA
23:00 -39.2 -43.1 66 0.0 9 5   102.46   -46 LegendNANA

Notes on Data Quality.

Legend

  • E = Estimated
  • M = Missing
  • NA = Not Available*
  • [empty] = Indicates an unobserved value
Date modified: